Theta_e
335 334 334 334 335 337 337 335 333 331 332 333 332 332 332 332 331 331 330 329 331 331 330 329 327 327 324 323 323 323 324 325 326 325 324 323 323 322 322 321 320 324 327 329 327 328 326 326 327 330 332 329 327 328 325 325 324 322 322 319 320 322 319 318 314 313 317 317 314 312 314 316 314 316 314 314 315 317 314 315 313 316 317 314 310
335 336 334 336 335 336 337 336 334 332 333 333 332 331 331 331 331 330 328 329 331 330 328 328 327 325 323 321 321 321 322 324 324 324 322 322 322 322 322 320 321 323 326 324 327 326 328 325 323 328 328 326 326 323 324 322 320 319 318 318 316 319 320 317 315 314 314 316 313 314 314 316 313 316 316 316 316 316 315 316 318 319 316 316 313
335 336 336 336 336 337 336 335 334 334 333 332 331 329 331 331 331 328 327 328 330 329 328 328 326 324 322 320 320 321 321 322 323 322 321 320 320 321 322 321 322 323 323 323 322 325 326 327 327 328 327 326 326 324 324 322 321 319 319 319 317 318 318 317 315 313 313 313 315 313 314 314 316 314 316 317 317 316 315 316 317 316 317 316 313
334 334 334 335 336 336 335 334 333 333 332 331 330 330 330 330 329 327 326 327 326 329 329 327 325 323 321 319 320 321 321 321 321 320 319 319 320 320 321 322 321 322 321 321 321 323 323 325 326 328 328 326 325 323 323 323 322 321 320 321 319 318 320 320 318 316 314 312 315 313 314 313 315 316 316 317 318 317 316 316 317 316 315 314 312
333 332 334 334 336 335 333 333 333 332 332 331 332 331 330 329 329 327 327 326 326 327 327 327 325 322 321 318 319 320 320 320 320 320 321 321 320 320 320 320 321 321 322 322 324 322 323 322 323 325 327 325 326 324 323 324 321 322 320 319 319 319 319 319 318 317 316 314 314 316 316 315 317 317 316 316 317 317 317 317 315 314 315 314 311
331 332 331 332 328 330 332 331 332 332 332 332 332 331 330 329 329 328 326 325 326 325 326 325 323 320 319 318 319 320 320 320 320 320 321 322 322 322 321 321 320 320 321 321 321 323 323 322 323 323 324 324 324 325 325 325 322 322 322 320 319 320 319 318 318 318 316 315 315 315 317 314 315 317 317 317 316 315 315 316 316 314 314 313 312
326 327 326 324 326 326 327 329 329 328 329 331 331 329 328 328 327 326 326 325 324 324 324 324 323 321 319 319 319 320 320 320 321 322 322 323 324 324 324 324 323 324 323 322 322 322 322 322 323 323 322 322 322 323 325 326 324 324 323 323 321 321 320 319 317 317 317 316 316 317 316 317 317 314 315 317 317 317 316 315 313 313 315 314 313
324 323 322 322 323 324 326 327 326 326 325 326 327 328 328 328 327 326 325 324 324 322 322 323 323 322 320 320 320 322 322 321 322 323 323 324 325 325 325 325 325 325 327 326 327 326 325 323 322 322 322 322 323 323 324 323 323 324 323 324 323 321 320 320 319 317 316 317 316 315 315 315 315 317 316 316 315 315 316 316 313 312 314 316 315
324 323 323 322 323 324 325 323 323 323 322 323 324 325 326 327 327 326 326 325 325 323 322 323 322 322 321 322 322 324 323 324 325 325 326 325 326 325 325 324 325 325 326 327 327 327 327 327 326 326 333 323 310 315 316 317 325 320 323 325 325 322 321 320 318 317 316 316 315 316 314 314 315 315 314 314 313 313 316 316 315 315 314 313 313
322 321 321 322 323 325 325 323 322 322 323 324 323 324 326 327 327 326 325 325 325 324 322 323 322 322 320 321 322 325 325 328 324 310 313 326 327 327 327 327 326 327 326 326 327 327 327 328 330 320 315 314 311 304 303 304 307 320 328 326 324 323 322 321 318 318 316 314 314 314 314 314 314 316 316 316 317 318 316 316 314 314 313 312 312
323 322 321 322 323 323 322 322 323 323 324 325 323 323 324 325 325 324 325 325 325 324 324 323 323 322 321 323 324 325 326 328 302 304 304 302 324 328 327 326 327 327 327 327 326 326 327 327 330 326 321 315 318 299 300 299 300 301 300 304 311 329 324 321 321 320 316 315 316 315 314 315 315 317 317 316 317 317 316 316 315 314 311 310 308
321 321 322 323 323 322 323 324 323 323 321 319 319 319 321 323 323 323 323 324 325 325 324 323 324 323 323 324 326 326 328 304 297 299 301 300 303 330 328 327 327 327 327 327 327 327 327 328 329 331 328 327 327 323 311 299 298 298 299 301 302 299 299 322 326 321 319 316 315 315 315 315 316 317 316 317 316 317 317 316 315 313 312 311 312
320 320 322 322 322 323 323 322 321 321 321 320 318 317 319 322 322 322 323 325 324 324 324 325 324 325 325 324 324 325 328 296 297 295 297 297 297 309 328 329 328 327 328 327 327 329 329 329 329 330 328 320 322 325 326 321 299 294 297 298 298 298 298 297 297 319 327 318 318 317 316 316 316 317 318 318 320 316 316 314 315 314 314 313 312
317 318 320 321 321 321 321 321 320 321 321 320 320 320 320 320 320 322 323 322 323 323 324 324 324 324 324 324 324 325 328 299 295 294 295 295 294 303 327 328 330 329 328 328 329 330 330 329 328 329 330 328 326 325 326 325 323 320 319 320 321 312 297 298 300 298 307 324 323 320 320 321 319 322 322 321 318 316 315 314 315 314 314 313 314
310 312 314 318 320 321 320 320 320 321 322 321 321 319 319 319 319 321 322 323 323 322 323 323 325 325 325 325 325 326 323 294 295 294 295 295 293 299 327 329 329 329 328 328 325 326 330 330 330 329 329 329 327 324 326 325 324 323 323 323 324 324 322 322 321 322 322 324 326 327 324 324 325 323 322 321 320 319 318 317 316 316 314 313 311
306 306 306 308 311 316 319 320 320 320 321 322 321 320 320 322 321 322 323 324 324 324 324 324 324 325 325 325 325 325 318 293 293 294 293 294 293 320 326 327 327 326 327 328 329 329 331 331 331 329 328 329 316 306 312 326 324 323 321 323 323 322 317 300 293 295 314 326 325 325 326 320 311 324 321 319 319 319 315 316 315 313 310 307 306
303 304 304 306 308 310 314 316 318 320 321 320 319 318 320 321 321 322 321 322 323 323 323 324 325 325 324 325 325 324 322 299 292 293 294 291 301 323 325 325 325 326 327 328 329 329 330 329 329 326 325 327 311 300 301 305 323 322 322 322 322 320 316 309 296 292 292 292 292 292 293 294 295 294 295 298 311 313 313 311 309 310 307 306 306
303 304 304 305 308 310 313 315 316 317 318 318 319 319 320 319 321 323 323 322 322 323 324 323 323 323 324 324 323 325 320 299 292 292 293 292 300 319 323 324 324 325 326 328 329 328 328 318 320 325 325 329 297 297 298 309 321 322 322 321 320 318 314 310 307 300 292 292 291 291 292 292 293 293 294 295 296 306 313 309 311 309 308 305 304
302 303 304 306 307 308 309 310 311 313 314 316 317 318 319 320 321 322 323 323 322 322 323 324 323 323 322 321 314 323 319 302 292 293 293 293 303 319 321 322 323 325 326 326 328 327 328 320 310 314 318 317 292 295 296 305 320 322 322 321 319 317 314 310 306 305 306 305 304 304 303 302 307 308 303 295 297 304 314 313 311 306 304 305 304
303 303 303 304 305 306 308 308 309 309 310 311 313 314 317 319 320 320 321 321 320 320 319 320 321 321 321 321 321 322 321 316 303 291 293 293 293 312 321 321 320 322 323 323 323 326 325 326 316 298 296 296 293 293 295 296 317 322 323 321 319 316 312 308 308 309 309 310 308 308 308 308 308 307 307 309 310 309 311 311 310 309 307 305 304
304 303 303 303 304 305 307 308 309 309 310 310 311 312 313 314 316 317 318 319 318 318 320 320 320 319 319 319 319 318 319 318 307 292 293 293 294 296 320 320 320 320 321 321 322 323 323 323 323 304 296 296 293 292 293 294 295 315 320 319 319 316 307 311 308 302 311 310 309 308 308 307 307 308 308 309 308 308 307 308 308 307 306 304 302
303 303 303 303 304 304 305 307 308 308 309 310 310 309 310 312 312 313 314 315 315 315 317 318 318 318 319 319 320 318 312 306 315 295 291 292 292 291 311 319 313 318 318 321 320 321 321 321 321 300 294 295 292 292 292 294 293 313 315 296 294 297 312 309 310 310 309 309 307 306 307 307 307 307 307 306 305 306 306 306 305 305 305 305 303
302 302 302 302 303 303 304 305 305 306 307 308 308 308 309 309 310 311 312 312 312 312 312 313 315 314 316 316 317 318 317 310 297 307 293 291 291 291 292 303 297 315 318 318 318 318 320 320 313 295 295 292 292 291 292 292 294 310 290 292 295 296 302 311 309 309 307 307 306 306 306 306 306 304 303 303 304 305 304 304 304 303 302 302 302
299 299 299 300 301 301 301 302 302 304 304 305 305 306 307 307 307 308 308 308 308 308 308 310 310 310 310 312 314 314 315 315 299 294 302 291 290 290 290 290 292 312 318 318 318 317 317 319 310 292 292 291 291 291 291 292 303 291 290 293 294 297 310 308 307 307 305 304 305 306 306 306 305 303 303 303 302 302 302 302 303 302 302 301 299
297 297 297 298 299 299 300 301 302 302 303 303 303 302 303 305 304 306 306 306 306 306 306 307 307 307 307 309 309 310 310 311 313 299 290 293 290 289 289 289 290 289 309 318 318 317 301 292 290 290 290 290 290 291 291 292 291 289 290 292 298 309 310 309 306 306 304 303 305 306 306 304 303 303 303 303 301 301 301 301 301 301 301 301 301
297 297 297 297 297 298 299 300 301 302 302 303 303 302 303 303 303 304 304 304 304 304 303 304 304 306 306 306 306 307 309 309 311 312 300 298 298 292 289 290 291 292 293 298 289 288 288 290 288 289 290 292 299 302 303 300 289 290 290 294 305 307 307 307 307 305 305 305 304 303 303 303 302 302 301 300 299 298 299 298 297 297 299 299 298
297 297 297 298 299 299 298 298 299 300 301 301 302 302 302 302 302 301 302 302 303 302 303 303 304 303 304 305 305 305 308 309 309 311 311 311 310 305 303 304 293 292 303 304 297 301 298 298 298 293 294 293 296 295 294 291 295 296 298 302 306 307 307 307 307 306 306 305 302 303 301 301 301 299 298 298 298 298 298 297 298 297 297 297 297
297 297 297 297 297 297 297 292 295 299 299 300 299 300 301 302 302 301 300 301 301 302 302 302 302 303 303 304 304 304 305 308 308 305 305 306 308 310 310 310 311 310 310 310 309 303 301 292 295 301 301 302 301 302 301 301 297 295 299 301 303 304 303 301 302 308 306 304 303 301 298 298 297 298 297 298 296 297 298 297 297 296 295 296 295
298 298 298 298 297 297 298 298 299 299 299 300 299 298 298 300 301 302 300 299 299 300 301 303 303 304 303 305 304 304 304 305 303 292 295 290 294 303 308 308 308 310 300 294 307 307 306 305 304 305 303 300 300 302 303 302 299 299 299 300 302 303 305 305 305 306 306 305 301 298 295 298 297 298 297 297 297 297 298 298 297 297 296 295 295
298 297 297 297 298 298 299 299 299 300 300 300 301 300 289 289 294 299 299 290 287 287 288 298 300 301 303 305 305 302 302 301 291 289 289 289 289 289 289 289 289 299 294 289 298 304 301 303 302 301 301 302 301 301 301 300 297 296 294 292 296 299 300 303 304 302 300 299 299 297 296 295 295 295 296 295 295 295 295 293 295 295 293 294 294
298 297 297 296 295 298 299 299 300 300 300 300 301 300 300 296 288 287 290 289 289 288 288 288 287 288 294 301 301 292 292 290 289 289 289 289 289 289 290 291 291 290 289 296 298 301 301 301 301 298 298 299 299 301 300 299 297 296 297 296 297 294 292 295 298 295 295 296 295 295 296 295 294 293 291 293 293 293 294 293 295 295 294 293 292
297 297 297 297 297 295 299 299 300 300 300 300 300 300 300 299 297 290 288 289 288 289 289 288 288 288 288 290 294 303 293 291 288 289 289 289 289 288 290 289 288 288 288 289 298 302 303 302 300 299 299 300 299 301 300 299 298 298 297 296 294 292 291 293 294 297 294 294 293 293 293 293 293 292 293 291 291 292 292 291 292 292 292 294 294
297 298 298 298 298 298 297 299 299 300 299 299 300 300 299 298 298 298 294 289 288 288 288 289 288 288 288 289 288 288 288 288 288 289 289 289 289 290 289 288 288 287 289 296 301 302 301 301 302 304 303 301 299 300 300 302 300 298 298 297 294 293 295 294 292 296 293 293 293 292 292 292 292 291 291 291 291 290 291 291 292 292 291 291 291
296 295 296 297 299 299 299 299 299 299 300 299 299 299 298 299 298 299 299 299 297 292 289 289 290 290 289 289 288 288 288 288 288 289 288 289 289 290 292 294 288 288 291 298 302 301 301 302 302 303 303 301 300 300 297 298 296 296 295 297 297 297 295 296 297 293 292 291 292 291 291 291 291 291 291 291 290 291 291 290 290 290 290 290 290
297 291 285 291 299 298 298 298 298 299 300 299 299 298 299 299 298 298 297 297 297 298 299 298 292 289 294 293 290 288 288 288 288 289 289 288 289 288 289 299 296 296 299 305 303 303 302 302 301 302 302 301 299 299 297 299 297 294 295 293 294 294 293 293 293 294 291 291 291 290 290 290 291 291 291 290 290 290 290 290 291 290 291 291 291
297 297 298 297 298 298 298 299 299 299 298 299 299 298 297 297 297 299 297 297 298 298 298 300 301 292 288 291 290 290 288 288 288 289 289 289 289 289 297 299 299 300 300 303 304 302 301 301 301 301 302 302 301 299 297 297 297 297 298 294 292 291 291 291 291 292 291 292 290 290 290 290 291 291 291 291 290 290 291 291 291 291 290 290 290
297 297 297 297 298 298 298 298 298 297 292 295 299 298 298 298 297 299 297 298 297 297 298 299 300 301 295 300 295 293 291 289 290 291 291 292 289 296 301 300 300 301 300 300 301 301 300 300 300 300 300 301 300 300 296 297 298 298 294 296 294 292 291 291 292 291 291 291 291 290 290 291 291 291 291 290 290 290 291 290 290 290 289 289 287
297 297 297 297 298 299 298 298 296 290 295 297 298 298 297 298 298 297 295 295 295 295 298 298 294 297 295 297 298 297 296 294 288 289 291 292 295 298 298 299 299 300 299 300 300 299 299 299 300 299 299 300 300 300 298 297 294 293 293 293 292 291 290 291 289 290 290 291 291 290 290 291 292 291 291 291 291 291 290 290 290 290 289 288 288
298 289 285 286 290 297 298 296 296 297 297 296 297 296 294 296 296 296 297 296 296 295 296 297 297 296 295 296 296 296 297 299 296 297 296 297 297 298 298 298 298 297 299 300 301 299 300 299 298 299 299 299 298 299 297 294 295 293 293 292 292 291 290 291 290 289 289 290 291 292 292 292 292 292 292 291 291 290 290 289 289 289 289 290 290
297 297 293 287 293 294 295 294 296 296 294 296 296 296 295 295 296 295 296 295 295 295 294 295 296 296 294 293 292 293 295 296 296 296 296 295 295 296 297 294 296 297 298 299 299 300 299 299 299 298 298 299 298 298 298 295 292 294 293 292 291 290 290 290 288 288 289 291 292 292 293 292 292 292 292 292 291 291 290 290 289 289 290 290 290
297 296 292 291 290 295 295 295 295 295 295 295 295 295 295 294 296 294 295 295 293 294 295 295 296 296 293 289 286 286 294 296 296 297 295 295 294 294 294 296 294 295 297 296 297 297 297 298 298 296 297 296 296 297 295 296 293 293 293 292 292 291 290 288 288 289 290 291 292 292 293 292 292 292 290 291 291 291 291 291 290 290 290 289 289
296 296 296 296 295 296 295 294 295 294 294 295 295 294 295 294 295 294 293 293 292 293 293 294 295 296 290 285 288 286 295 297 297 296 297 296 294 294 294 295 296 295 295 294 295 293 293 293 293 294 293 292 293 294 295 294 294 294 293 293 292 291 290 289 289 290 291 292 292 292 292 292 292 291 291 290 291 292 292 292 291 291 290 290 290
296 296 296 295 295 295 295 295 295 295 294 294 294 291 291 293 294 295 294 293 293 293 293 293 294 296 293 288 289 288 296 297 293 295 293 292 293 293 293 293 294 295 295 294 294 293 293 292 291 291 291 291 291 291 292 293 293 293 293 293 292 291 290 289 290 290 291 291 291 290 290 290 290 291 291 291 291 292 292 291 289 290 290 289 290
296 296 295 295 295 296 296 295 295 293 293 289 291 291 293 294 294 294 294 293 293 293 293 293 294 293 293 293 292 293 295 292 293 293 292 292 292 293 293 292 292 292 292 291 292 292 292 291 290 289 288 289 289 288 288 289 290 291 291 290 289 288 288 288 289 290 290 290 290 289 290 290 290 290 290 290 291 290 290 289 289 289 290 291 290
296 296 296 296 296 297 296 295 294 294 292 292 293 293 293 294 293 292 292 293 292 293 293 292 292 293 292 292 292 292 292 290 288 289 290 291 291 291 291 291 291 290 290 290 290 289 290 291 289 288 287 287 286 286 286 286 287 287 288 289 289 288 287 287 287 289 290 290 290 290 290 290 290 290 291 291 290 290 291 290 290 288 288 288 289
296 296 295 296 295 295 296 296 296 295 294 293 293 293 293 293 293 292 292 292 292 292 292 293 293 292 291 291 290 290 290 289 289 289 289 290 290 288 287 288 289 288 287 287 288 287 287 289 288 289 288 288 287 287 286 285 285 285 286 286 286 286 286 287 287 289 290 290 291 291 291 290 291 290 289 291 292 291 290 289 289 289 289 288 289
296 296 295 296 295 294 294 296 296 294 294 293 292 291 291 292 293 291 290 290 292 291 292 293 293 293 292 291 290 290 291 289 289 288 289 289 289 287 286 287 287 286 284 284 286 287 286 286 286 286 285 286 286 286 287 286 285 285 284 284 285 286 287 288 289 289 289 289 290 292 291 291 290 290 288 288 289 289 288 289 289 288 288 288 289
295 295 295 295 296 296 295 295 293 290 293 292 292 291 291 292 292 291 291 292 292 292 292 293 293 294 292 293 292 292 292 291 291 290 290 289 288 286 286 286 287 286 285 285 285 286 286 286 285 286 286 285 285 286 286 286 286 285 284 283 281 282 281 284 288 288 289 289 289 289 289 290 290 290 289 288 288 289 288 289 289 289 288 288 288
295 295 295 295 295 294 294 294 293 294 294 294 292 292 292 292 291 292 292 292 292 293 293 292 293 293 293 293 293 293 293 291 292 292 291 290 288 286 286 286 286 286 285 285 286 286 286 285 285 285 285 286 285 285 285 285 285 284 283 282 280 279 279 280 285 285 286 288 288 288 288 288 287 287 287 287 287 288 288 287 287 287 288 288 288
295 294 295 294 295 294 294 294 295 295 294 294 293 292 291 292 291 292 292 292 293 292 293 292 292 293 293 293 292 293 293 292 292 291 291 290 289 287 287 286 286 286 286 285 286 286 286 285 285 284 284 285 285 285 285 284 283 283 283 281 278 278 279 280 279 280 286 288 287 288 287 287 287 287 287 287 287 286 286 287 287 287 288 287 287
294 294 294 294 295 295 295 294 294 294 294 293 293 292 291 291 291 292 292 293 293 293 292 293 293 292 293 293 292 293 293 292 292 292 291 289 289 288 286 286 285 286 286 285 285 285 285 285 285 285 285 284 285 284 284 283 282 281 279 278 278 278 278 280 282 280 280 284 287 287 287 286 286 286 287 288 287 287 285 285 285 286 287 288 287
Wind_Speed
11 11 10 10 11 12 11 10 11 10 10 9 9 9 8 8 8 7 7 6 7 8 9 9 8 7 6 5 5 5 5 6 5 5 5 5 4 5 5 5 5 5 5 5 5 6 5 6 6 6 6 7 7 6 7 7 5 3 4 4 5 5 7 8 9 9 5 6 7 8 9 9 8 9 9 9 8 6 7 8 9 8 6 6 6
10 10 10 9 11 10 10 9 9 9 10 9 9 9 8 8 7 7 7 7 7 9 9 8 7 7 6 6 5 6 7 7 6 5 5 6 5 4 4 5 5 5 4 5 6 4 4 5 6 7 7 7 7 8 7 7 6 6 5 5 6 5 4 6 8 9 9 7 8 8 8 9 8 9 9 9 8 7 8 7 7 6 6 6 6
10 9 10 9 10 9 9 9 9 10 10 9 10 10 9 8 8 8 7 7 8 8 8 8 8 7 6 6 7 7 7 7 6 6 6 6 6 5 4 5 5 5 5 5 5 5 5 5 5 6 5 6 6 6 7 7 6 6 6 4 6 5 5 6 7 8 10 8 8 9 9 9 7 9 9 8 8 8 8 7 7 5 5 5 6
9 10 10 10 10 9 9 8 9 9 10 9 10 9 9 8 8 8 8 7 8 7 8 8 8 7 7 8 8 8 8 7 7 7 7 7 7 7 6 5 5 5 5 6 6 5 5 5 5 5 5 6 6 6 6 6 5 5 6 5 6 5 4 4 6 7 8 9 9 9 9 9 8 8 8 8 8 8 7 7 6 6 5 5 6
9 11 10 10 9 8 8 8 9 9 9 8 9 8 8 8 7 8 7 7 8 7 8 8 8 8 7 9 9 8 8 8 8 8 7 6 7 6 6 5 5 4 4 5 4 5 5 4 5 5 5 6 6 5 6 6 6 5 5 5 6 6 4 5 6 7 8 8 8 8 9 9 7 8 9 8 8 8 7 6 6 6 6 5 6
7 9 9 8 6 3 5 4 6 7 8 7 8 7 7 7 7 6 8 8 7 8 8 8 7 8 8 9 9 9 9 8 8 8 8 7 6 6 5 5 5 4 4 3 4 3 3 4 4 4 5 5 5 5 4 6 5 5 5 5 5 5 6 6 5 6 7 7 8 8 9 9 9 7 9 8 8 8 7 7 6 5 6 5 5
4 6 10 10 7 4 6 6 6 7 5 5 6 6 7 7 7 7 7 8 8 8 8 8 7 7 8 8 9 9 8 8 7 7 7 7 7 6 6 5 5 4 3 4 3 2 2 3 2 2 3 2 3 4 5 5 5 6 6 6 6 5 7 7 7 7 7 7 8 8 8 9 8 8 9 9 9 8 7 7 6 6 6 6 5
8 7 7 6 6 7 7 4 5 4 5 5 5 5 5 6 6 7 7 8 8 8 9 9 7 6 7 7 7 7 7 7 7 7 7 6 6 6 6 6 6 5 5 4 4 3 2 2 2 2 3 3 2 3 4 4 4 6 6 6 7 8 8 8 7 7 8 8 8 8 8 9 9 8 8 9 9 9 8 7 8 7 6 5 4
7 8 9 9 8 7 6 4 6 4 6 4 5 5 5 5 5 6 6 7 6 7 8 9 8 6 7 6 6 6 6 5 5 5 6 5 4 5 5 6 5 6 5 5 4 3 2 2 1 1 5 7 8 7 7 5 3 6 5 6 7 8 8 8 10 9 8 8 8 8 9 9 9 10 10 10 10 9 8 7 7 7 6 5 5
10 10 10 9 9 7 6 6 7 6 5 4 4 4 4 5 6 6 7 6 6 6 7 8 8 7 8 7 6 5 4 2 6 8 9 2 4 4 4 5 5 5 5 5 4 4 3 2 2 6 4 4 4 5 5 6 8 6 4 5 8 8 8 9 10 10 9 10 10 10 10 10 10 11 10 10 10 9 8 8 8 6 6 5 4
10 10 11 10 9 9 9 8 8 8 6 6 8 6 3 5 6 6 5 5 5 5 6 7 6 6 7 7 6 5 3 3 6 3 3 7 4 3 3 3 3 4 4 4 4 5 5 4 3 5 3 2 1 1 3 4 6 8 9 10 8 4 8 10 10 10 11 10 10 10 10 10 11 11 11 10 10 10 8 8 8 7 7 7 7
10 9 9 9 10 10 10 10 8 8 8 8 7 5 6 5 4 2 3 3 4 4 5 6 5 6 5 6 6 5 4 6 6 6 3 1 3 3 4 4 5 5 5 5 4 4 4 5 4 3 5 5 4 4 3 1 2 3 3 5 7 8 7 4 6 9 11 10 10 10 10 11 11 11 10 10 9 8 8 9 8 8 8 8 7
11 10 9 8 7 8 9 9 9 9 7 6 4 4 4 3 5 4 4 2 1 3 3 3 4 4 5 5 5 5 5 6 8 7 6 4 1 4 5 5 5 5 5 6 6 5 5 5 5 5 4 5 4 6 5 4 4 1 1 3 2 4 8 8 6 5 5 11 10 10 10 10 11 10 11 10 9 10 9 9 8 8 7 7 7
11 10 11 10 8 8 9 8 8 7 8 9 7 6 5 4 4 2 3 3 3 2 3 3 2 3 4 4 4 4 4 5 5 6 7 7 5 3 6 5 5 6 7 7 7 7 7 6 6 6 5 5 6 7 6 6 5 4 5 6 6 4 4 3 7 7 6 6 8 10 11 11 9 9 9 11 11 10 10 9 8 7 6 5 3
11 10 10 10 9 8 9 9 9 8 8 8 7 6 5 5 4 2 3 4 3 3 2 2 2 2 1 0 1 3 3 4 4 5 5 5 5 4 5 5 6 6 6 6 7 11 8 6 7 7 6 6 6 6 7 7 6 6 7 7 6 5 4 2 3 4 5 4 3 2 5 1 4 7 9 9 9 7 7 7 7 5 4 6 4
12 10 10 9 8 7 7 6 7 8 8 7 7 6 5 5 5 4 4 4 3 2 2 3 3 3 2 2 2 3 3 4 3 4 5 6 5 3 4 5 7 7 8 9 10 10 7 7 7 7 7 7 6 8 8 7 8 9 9 8 6 3 2 5 5 6 4 2 2 1 2 6 8 5 6 7 7 7 6 6 5 6 6 6 5
12 11 10 9 9 8 7 7 7 7 7 8 7 7 4 5 4 4 4 4 4 3 2 2 2 2 2 2 1 3 5 3 3 4 4 4 4 3 4 5 6 8 8 8 8 7 7 6 6 6 7 8 9 12 10 8 9 10 10 9 7 5 3 3 8 9 7 11 13 14 14 14 14 14 13 10 7 7 7 6 6 6 6 6 6
11 11 10 9 9 9 9 9 9 9 9 8 8 7 6 6 2 3 5 5 4 3 2 3 3 3 2 3 4 1 6 5 3 4 3 3 4 3 3 5 5 7 7 7 7 6 5 4 4 7 8 5 11 12 12 9 10 10 10 10 8 7 4 3 4 5 9 14 14 14 13 14 14 13 12 11 10 0 7 6 6 6 6 6 6
12 12 11 10 10 10 9 9 9 9 9 8 8 8 7 5 5 4 5 4 4 3 1 2 3 3 4 3 3 4 6 5 4 5 2 3 3 4 4 4 5 5 6 6 5 6 4 4 5 6 7 3 10 10 12 11 11 11 11 11 10 9 6 7 6 6 6 8 8 10 10 10 9 8 8 10 8 4 1 1 4 5 6 5 4
11 11 11 10 10 9 9 10 9 9 9 8 7 6 5 6 6 5 4 4 4 4 4 3 3 4 2 2 3 3 3 4 4 5 4 5 5 5 4 5 5 5 5 6 5 5 4 4 7 9 7 4 5 9 12 13 12 12 11 9 8 7 6 7 7 7 8 7 9 9 9 8 8 8 7 6 5 4 3 1 1 3 4 3 3
10 10 9 10 10 10 9 9 9 9 8 7 7 7 6 6 5 5 6 5 5 4 5 4 4 4 4 4 4 3 2 2 4 6 6 5 5 5 2 3 4 5 5 5 5 5 5 2 5 6 9 8 7 9 10 11 6 6 4 3 3 3 8 7 8 6 8 8 9 9 8 8 7 7 6 6 5 5 4 4 2 2 1 1 3
9 9 9 10 10 10 10 9 8 7 8 7 6 7 6 6 5 5 5 5 5 5 4 3 4 4 4 4 5 5 5 7 3 3 2 3 5 7 4 1 2 4 5 5 4 4 4 4 1 6 3 3 6 7 7 9 10 6 3 7 12 13 4 3 4 5 6 6 7 7 7 7 7 7 6 6 5 5 4 4 3 3 3 3 3
9 9 9 9 9 8 8 9 7 6 7 7 7 6 5 5 5 4 4 4 4 4 4 3 2 3 2 3 4 4 4 5 3 2 4 4 5 8 9 7 4 5 4 5 5 5 4 3 2 4 3 6 7 8 9 7 5 3 7 10 13 15 10 6 5 4 6 6 7 7 7 7 7 7 6 6 6 5 4 4 4 4 4 3 3
8 8 8 7 7 7 7 7 7 6 7 6 6 7 6 5 5 5 5 4 3 3 3 2 2 2 2 2 3 4 3 3 6 3 1 2 5 6 7 9 9 6 5 5 4 4 6 5 2 3 4 5 5 4 5 4 5 6 9 11 13 12 9 8 7 7 7 7 7 8 7 7 7 7 7 7 6 5 5 5 4 4 3 3 4
6 6 7 7 6 6 6 6 6 6 5 6 6 5 6 5 4 4 4 4 4 3 3 3 2 2 2 2 2 3 3 3 2 5 4 4 4 6 6 7 9 11 7 5 4 3 6 7 4 7 7 5 6 7 4 3 2 8 9 13 12 9 8 8 8 7 7 8 8 8 8 8 7 7 7 8 7 6 5 4 4 3 3 3 2
6 6 6 6 6 6 6 5 6 6 5 4 4 4 4 4 4 4 3 3 3 3 3 3 2 2 2 2 2 3 2 2 1 3 5 4 2 1 4 4 6 7 7 6 11 10 7 5 3 2 4 7 7 5 6 5 5 4 8 10 8 8 8 9 7 9 9 9 9 8 7 7 8 8 8 7 6 5 5 4 4 3 3 3 3
4 4 4 4 5 5 6 6 4 5 5 4 4 4 3 3 3 3 3 3 3 2 2 2 2 3 2 2 2 2 1 0 0 1 2 1 1 4 3 2 2 4 4 0 2 2 2 1 2 3 4 1 2 6 8 9 8 5 4 5 6 6 6 9 10 10 10 8 8 8 8 8 8 8 7 6 5 5 4 4 3 3 3 3 4
4 4 4 4 4 4 4 2 4 4 4 5 5 4 4 4 4 5 5 5 4 4 3 3 4 4 4 4 4 3 3 2 7 8 8 8 8 6 4 2 3 3 5 2 1 2 3 5 5 5 5 5 4 3 2 3 6 6 6 4 2 4 5 5 6 8 8 9 8 8 9 8 8 7 6 5 4 4 4 4 3 3 2 2 2
4 4 4 4 4 3 3 4 4 3 3 3 5 6 6 4 4 4 6 6 6 5 5 4 5 5 4 5 5 4 4 5 7 8 7 6 5 7 7 7 7 5 7 5 3 3 4 4 3 3 3 2 3 4 5 5 3 5 6 4 4 3 2 7 9 9 9 9 9 9 6 7 7 7 6 5 4 4 2 2 1 1 2 3 4
3 4 4 4 4 3 3 4 4 4 4 4 2 5 5 6 7 6 5 5 2 4 5 4 6 5 5 4 5 5 5 6 10 13 11 10 7 6 7 8 7 6 3 1 5 5 3 3 3 3 2 2 3 3 4 4 4 4 3 3 4 4 2 2 2 4 5 4 7 6 6 5 5 5 5 5 4 3 2 1 2 2 3 4 3
4 4 4 5 5 4 4 4 4 4 4 4 4 3 5 5 2 4 6 3 3 3 1 2 2 5 6 5 3 7 1 3 7 9 9 7 6 4 4 5 6 4 6 3 4 4 4 4 3 2 3 2 3 3 4 5 6 6 5 5 6 6 4 5 4 4 4 5 4 4 4 4 4 4 3 4 4 3 3 3 3 3 3 3 4
5 5 5 5 5 4 4 5 4 5 4 4 4 4 3 3 6 4 6 6 1 2 1 2 5 4 5 4 6 2 2 7 9 9 8 7 4 1 3 4 4 5 4 4 4 5 4 4 3 3 2 3 3 3 3 4 5 6 6 6 4 3 3 4 5 5 5 6 6 4 4 3 3 3 3 3 3 2 3 2 2 3 3 4 2
7 6 6 5 4 5 5 5 5 5 5 5 4 5 4 4 3 4 6 6 8 8 5 3 2 1 1 1 1 3 7 9 10 9 8 6 4 3 5 4 3 2 3 4 4 5 4 4 5 6 5 4 3 3 3 5 4 4 5 6 7 5 5 5 5 7 6 6 6 5 4 4 3 3 2 2 3 3 3 3 3 3 3 2 2
8 7 6 5 5 5 5 4 4 4 4 4 4 4 4 4 4 4 2 3 5 3 2 2 5 3 2 2 6 7 7 9 9 8 7 7 4 2 3 3 5 4 2 2 4 6 5 7 7 7 6 6 5 3 2 2 2 3 3 4 5 6 6 5 7 5 4 5 5 4 4 4 3 3 2 3 3 3 3 3 2 2 3 3 2
3 6 1 7 4 4 4 3 3 3 4 4 4 4 4 4 4 4 4 4 4 4 2 4 6 6 4 5 8 6 6 7 7 8 8 6 4 1 3 3 1 2 4 3 4 5 5 6 5 5 6 5 3 3 1 2 2 3 4 3 5 5 5 5 5 5 4 6 7 6 5 5 4 4 4 4 3 3 3 3 3 3 2 2 2
3 3 3 1 3 3 3 3 4 4 5 4 3 4 3 4 5 4 4 4 4 3 2 4 3 8 5 2 6 4 4 6 6 7 6 5 6 7 2 4 4 5 4 4 4 4 5 6 6 6 5 5 5 2 2 2 2 3 4 5 4 4 3 3 3 4 4 5 5 6 6 5 4 4 3 3 4 5 5 4 3 2 1 2 2
2 3 2 2 3 3 2 2 4 4 3 2 3 3 4 5 5 5 5 5 4 2 2 3 4 2 5 3 9 3 1 2 3 2 2 3 8 6 3 3 4 5 5 5 5 5 5 5 5 5 5 5 5 4 2 3 3 2 3 3 6 6 3 3 4 4 5 5 5 5 5 5 5 4 4 4 5 5 4 3 2 2 2 1 2
3 3 4 5 4 2 2 3 2 7 3 2 3 3 4 4 4 4 5 3 5 3 5 5 5 5 5 5 10 8 10 6 8 7 8 6 1 3 4 3 4 4 3 4 4 3 4 3 5 5 5 5 4 2 3 4 3 3 0 1 2 3 6 4 4 3 3 5 4 5 5 5 5 5 5 5 4 4 3 3 3 3 3 2 3
3 5 2 6 3 4 2 2 2 2 3 2 3 3 4 4 4 4 3 4 3 3 5 5 5 6 7 8 7 10 9 5 5 5 5 4 4 4 4 4 4 4 5 5 5 5 4 4 4 4 5 4 4 3 2 2 4 3 3 2 2 4 6 4 3 2 2 2 3 4 5 5 5 5 5 4 3 2 2 2 2 2 2 3 3
2 2 4 6 5 3 2 2 2 3 3 3 3 3 2 3 3 2 3 2 3 3 3 3 5 6 7 8 8 8 7 4 4 4 4 5 4 5 4 4 4 4 5 6 7 6 6 5 4 2 3 3 2 2 2 2 2 3 4 4 5 5 7 5 3 3 3 4 4 4 5 5 4 4 4 3 2 2 2 2 2 2 1 1 0
1 2 1 3 6 2 4 3 3 3 3 3 2 3 4 3 3 3 2 2 2 2 3 4 4 5 6 7 10 9 7 5 5 4 4 4 4 5 5 4 4 5 6 4 6 6 7 6 4 4 3 2 2 1 1 1 2 2 3 5 8 6 6 4 3 4 5 5 4 4 4 4 3 3 2 2 0 1 1 1 1 2 2 1 1
1 2 2 2 1 2 4 3 4 3 3 3 3 4 3 4 4 4 4 3 3 3 2 3 4 4 8 9 10 13 7 6 5 6 6 7 6 5 5 4 6 6 5 5 5 5 5 5 5 5 6 6 6 4 1 1 2 2 4 4 6 7 7 5 4 4 5 5 4 3 3 3 3 2 0 1 1 2 1 1 1 1 1 1 1
1 1 2 2 2 3 3 3 2 3 3 3 3 3 3 3 3 3 3 4 3 4 3 3 4 5 6 7 7 9 4 5 5 6 6 4 5 4 5 5 5 6 7 6 5 5 5 5 5 6 6 6 5 6 5 3 1 1 2 4 5 5 6 5 4 3 3 2 2 1 0 2 1 2 2 2 2 2 1 0 2 2 1 0 2
1 2 2 2 3 3 2 3 3 3 3 1 2 4 3 3 4 4 4 4 3 3 3 4 4 4 4 5 5 5 6 5 6 5 5 4 5 5 5 5 6 6 6 6 6 6 6 6 6 6 6 6 7 8 7 6 6 4 1 3 5 5 5 5 3 3 2 2 2 2 1 0 1 2 1 1 1 1 2 1 2 2 2 3 2
1 1 2 2 2 2 3 3 3 3 2 3 2 4 4 4 4 4 4 2 4 4 3 3 4 4 6 5 5 5 6 6 5 5 5 5 5 6 6 6 6 6 6 6 7 7 6 6 6 7 7 7 8 8 8 8 7 6 6 4 5 6 5 4 3 1 1 1 2 1 1 2 2 3 2 1 1 2 3 2 3 0 2 2 2
1 2 1 2 2 2 3 3 2 3 3 2 2 2 3 4 5 4 3 3 4 3 2 3 3 4 5 5 5 6 5 5 4 4 5 4 5 5 5 5 6 6 6 6 6 7 7 7 7 7 7 7 7 7 7 7 7 7 7 7 6 6 5 3 1 0 1 1 1 2 3 2 2 0 4 2 2 3 2 2 1 2 2 1 0
1 2 2 2 3 2 3 2 2 3 3 3 3 2 2 4 4 4 5 4 3 3 3 3 2 3 4 4 4 4 4 3 3 3 4 5 5 5 4 4 5 5 5 5 5 5 6 6 6 6 7 6 6 6 6 6 6 6 6 6 6 5 4 2 2 2 1 1 2 1 0 1 1 1 2 2 3 2 2 2 1 0 2 2 2
1 2 1 1 2 2 3 4 5 3 3 3 2 3 3 3 3 3 3 2 3 3 3 3 4 4 4 5 5 4 4 3 2 4 4 4 4 4 4 4 4 4 4 5 5 6 6 6 6 5 5 6 6 6 6 6 6 6 6 6 7 6 7 7 2 2 2 2 1 2 0 1 1 1 1 0 2 2 2 1 1 2 1 2 2
3 2 2 2 1 2 2 2 1 2 2 3 3 2 2 2 2 2 2 2 2 3 3 3 3 3 4 4 4 5 5 5 3 4 4 4 4 4 4 4 4 4 4 4 4 5 5 6 6 6 6 6 7 7 7 7 7 7 7 7 8 10 10 11 6 3 4 1 2 2 1 1 1 1 1 1 1 1 1 1 2 2 2 2 2
2 3 3 2 2 2 2 1 1 1 2 1 2 1 1 1 2 2 1 2 2 2 2 2 2 2 3 4 4 4 4 4 4 4 4 3 3 3 3 3 3 3 3 4 4 4 4 5 5 6 6 6 6 6 7 7 7 7 7 7 9 8 7 7 9 10 6 3 3 3 3 2 2 1 1 1 1 0 1 0 1 2 2 2 2
1 1 2 3 2 2 2 3 3 2 2 1 2 1 1 0 0 1 0 1 1 1 1 1 2 2 2 2 3 3 3 3 3 2 2 2 2 2 2 2 2 2 3 4 3 4 4 4 4 5 5 6 6 6 6 7 7 7 8 10 11 11 12 10 6 7 9 7 2 2 2 3 2 2 1 1 0 1 2 3 1 2 3 4 3
Wind_Direction
182 188 185 182 177 175 171 171 171 169 168 171 176 177 168 168 167 166 163 169 162 168 164 163 164 168 165 171 168 162 156 156 153 150 142 137 128 125 135 134 126 112 124 124 126 134 136 133 137 141 154 153 147 146 152 151 149 134 133 131 138 163 173 159 140 142 138 145 155 157 159 164 165 162 150 146 154 152 151 140 161 197 146 127 111
186 188 190 187 179 173 169 163 166 165 164 166 174 170 168 169 163 165 164 158 169 167 165 162 165 167 163 163 164 158 157 151 155 152 140 136 135 140 136 128 105 104 123 129 117 112 119 122 122 132 149 151 154 157 158 162 163 152 146 143 137 150 166 148 151 154 149 157 163 159 158 189 166 175 155 162 167 166 166 165 177 185 149 153 128
187 189 189 187 179 173 168 166 165 163 164 169 174 172 170 165 163 164 163 161 169 173 164 167 167 163 158 161 158 155 152 147 149 145 137 147 147 141 136 121 122 119 123 128 133 128 133 124 132 137 148 154 165 165 158 173 179 158 141 151 136 149 160 147 154 159 159 164 163 167 172 187 190 177 167 173 171 180 176 176 182 168 151 144 124
186 189 186 186 178 172 170 161 162 166 169 171 174 171 169 165 164 167 164 164 168 174 169 174 167 164 160 160 156 155 149 149 151 146 145 141 146 144 138 135 133 129 125 128 123 133 131 142 140 152 154 160 172 165 174 177 194 166 155 144 148 158 150 149 164 152 169 164 179 177 176 181 196 185 177 175 177 192 185 178 178 171 163 153 132
190 190 187 179 178 173 159 158 159 167 169 171 169 166 166 165 163 169 164 169 166 169 173 176 173 167 166 164 157 156 155 155 147 140 136 143 136 139 142 130 127 120 107 99 112 120 133 135 150 156 161 173 173 181 178 185 189 180 191 166 170 158 166 185 172 163 167 176 173 187 168 187 194 191 184 184 180 198 189 175 189 175 160 131 108
200 191 186 141 96 136 119 132 159 159 160 155 161 163 166 165 163 168 170 169 165 172 173 176 180 169 172 166 159 160 158 154 151 146 140 138 138 132 128 136 134 132 134 147 126 125 130 130 135 162 170 182 186 188 195 189 207 205 206 212 192 168 184 184 192 174 178 172 178 178 179 185 195 195 190 196 193 195 187 185 183 165 161 172 155
345 61 64 88 120 126 139 146 117 121 109 129 146 163 167 170 174 173 174 170 169 173 175 176 182 176 171 167 164 162 157 160 152 148 147 147 141 139 140 140 138 127 142 134 133 140 171 150 148 157 189 196 198 203 203 208 215 225 221 216 230 200 198 200 197 188 195 181 181 185 180 189 194 191 199 199 200 206 194 188 187 180 186 182 175
103 105 122 111 99 109 99 146 129 99 92 101 122 136 153 171 181 174 176 172 175 176 176 177 175 183 167 175 163 159 156 166 158 160 157 148 149 151 151 157 152 152 150 143 137 144 140 163 187 186 208 203 212 206 218 222 224 232 227 225 221 220 214 215 218 206 202 199 194 188 195 186 194 201 199 196 209 210 209 205 201 186 185 189 182
119 117 113 115 118 128 138 98 86 71 82 100 117 141 160 165 172 178 180 175 180 179 179 176 172 178 166 171 160 156 166 162 164 168 160 150 157 165 165 167 164 161 165 157 156 159 166 136 209 77 38 24 17 0 5 353 246 226 218 225 223 221 221 218 212 214 219 206 203 198 195 194 197 195 197 196 206 211 207 197 214 192 184 182 190
114 119 121 126 133 131 117 118 123 118 85 98 109 135 150 165 173 177 184 174 180 179 180 175 173 175 169 165 159 159 165 160 48 26 3 3 175 182 182 186 179 169 174 167 164 176 182 191 140 66 49 31 21 9 357 333 327 331 313 215 211 216 216 218 213 210 212 209 209 202 200 200 200 197 198 198 203 211 205 194 216 189 183 189 172
113 118 118 120 121 131 128 121 122 110 90 71 67 53 100 166 169 172 172 176 168 170 177 169 171 176 173 165 158 163 167 91 82 52 68 3 330 204 197 199 198 191 194 194 184 180 197 207 191 146 161 167 161 100 348 350 334 323 316 320 326 283 222 217 217 209 206 211 211 205 209 211 208 199 201 198 199 205 208 199 215 185 200 197 210
96 98 106 123 131 133 132 131 123 99 88 79 72 47 26 57 104 132 161 167 169 170 173 173 168 174 180 172 167 169 145 105 138 147 139 139 331 278 217 214 211 215 214 215 215 213 207 202 217 198 221 224 228 176 169 89 319 297 289 306 301 313 335 308 241 215 212 217 211 213 218 219 210 204 202 196 192 190 195 197 199 193 201 217 248
73 82 105 109 108 121 126 132 139 140 121 104 87 75 48 34 62 47 52 41 155 163 152 166 180 171 186 182 173 170 147 139 150 154 144 139 179 286 234 222 225 225 233 231 233 232 222 217 214 212 199 127 225 234 224 177 135 106 276 219 262 295 312 310 319 326 277 225 228 220 219 220 214 203 199 188 179 186 184 192 192 200 213 233 240
88 86 83 91 100 112 115 123 129 135 136 136 158 139 145 109 97 94 104 79 56 83 119 163 184 193 201 195 185 182 123 118 148 146 149 153 161 226 249 249 243 242 245 247 252 239 230 236 233 220 214 196 225 237 235 222 194 196 211 223 222 183 224 266 305 300 303 289 247 236 223 222 213 198 174 173 178 183 183 192 187 199 201 226 98
66 68 76 83 89 101 116 125 127 132 136 139 144 139 124 114 103 81 77 87 90 95 106 118 91 96 107 215 194 120 71 114 133 137 134 142 138 249 240 251 246 244 250 260 268 269 251 243 248 252 239 225 225 226 232 227 220 215 221 221 226 221 204 224 244 254 250 248 284 353 64 43 196 150 157 170 178 180 194 190 178 185 132 107 140
63 56 55 54 62 76 75 72 112 120 122 127 132 139 143 133 117 103 94 86 86 103 90 106 129 130 118 125 153 131 124 159 144 130 128 133 157 225 231 238 246 245 243 235 239 244 246 243 245 244 249 240 187 184 229 246 228 228 224 217 208 182 81 50 347 313 327 270 252 194 102 66 71 114 141 158 143 119 113 116 133 141 167 195 200
61 58 52 49 55 61 74 74 64 82 98 94 90 77 78 105 123 128 122 126 122 127 128 121 115 120 120 131 191 175 115 125 101 106 114 147 218 245 243 244 243 241 242 247 244 245 243 239 239 248 243 245 160 179 205 245 234 232 225 215 202 193 165 97 48 32 55 79 86 90 90 89 85 78 69 70 117 140 152 163 173 186 200 219 206
60 61 59 54 54 61 71 76 81 88 92 99 109 112 110 106 134 154 147 140 133 146 157 132 79 36 41 53 27 334 90 77 87 107 135 188 296 283 250 247 248 251 250 240 246 241 227 142 268 252 253 245 153 185 192 206 230 233 230 220 198 195 163 129 100 68 72 77 77 81 89 93 91 82 74 74 57 11 175 197 179 195 219 226 218
55 54 52 51 51 54 58 65 72 78 83 82 82 92 97 108 124 121 113 113 111 112 90 110 124 129 63 60 25 320 99 107 117 118 146 182 247 260 268 266 261 258 264 253 237 253 235 167 200 270 297 21 161 188 192 202 224 230 229 222 214 205 174 137 129 127 117 111 105 102 98 104 106 100 79 57 46 21 300 230 155 211 223 215 223
54 56 54 50 49 50 50 51 52 59 68 72 75 81 87 86 86 97 117 126 116 112 117 108 100 82 104 91 85 54 76 97 123 146 167 191 259 291 277 272 275 278 272 274 276 251 247 251 161 195 247 268 197 197 206 213 226 238 232 225 206 189 132 138 165 160 155 143 133 127 119 116 110 113 112 106 89 76 81 111 221 244 228 201 211
49 55 56 52 49 46 45 44 44 47 49 58 61 62 64 67 70 74 79 78 88 107 113 123 122 126 126 128 111 100 70 123 140 184 172 194 194 252 287 282 280 284 287 278 269 275 273 282 295 160 202 215 208 209 219 228 273 320 287 263 298 133 142 167 163 177 152 140 135 133 128 128 130 131 135 134 131 119 99 74 67 12 327 243 215
41 48 52 54 51 49 42 36 33 35 33 41 51 56 51 50 48 54 67 79 85 81 69 78 90 101 114 117 111 115 78 20 70 136 203 191 226 227 232 194 7 289 276 279 280 282 275 280 331 76 135 184 216 206 216 225 231 244 134 117 111 111 94 87 140 156 144 148 145 143 142 143 146 146 140 133 128 125 123 116 90 70 50 29 5
34 41 43 48 48 50 48 40 37 32 30 34 41 47 45 48 47 49 55 81 81 80 75 58 69 82 85 86 91 92 105 112 19 35 150 239 219 249 272 286 129 253 263 276 289 287 298 293 87 89 140 194 196 198 205 228 244 217 127 133 124 121 125 147 152 166 166 166 157 153 157 158 149 139 143 140 130 127 123 105 106 101 87 67 37
28 37 40 41 44 44 45 48 40 38 32 33 42 42 38 36 37 34 25 19 36 48 51 48 44 54 31 62 69 64 51 63 117 40 32 227 284 281 277 290 294 274 292 259 255 255 252 259 112 138 221 222 217 203 207 172 203 135 152 141 145 150 164 156 169 184 176 167 170 166 167 151 146 156 148 139 129 121 109 111 108 105 106 108 109
33 37 38 36 34 44 45 45 44 39 37 36 38 40 38 26 45 41 35 34 24 23 32 25 26 32 36 36 30 33 30 10 72 101 43 5 303 294 303 312 306 307 299 290 289 322 39 55 130 194 182 164 137 142 143 172 136 157 158 160 164 173 169 170 178 169 173 177 177 174 164 156 156 129 116 110 115 125 127 116 100 89 88 102 80
39 37 38 36 31 31 29 39 46 39 31 40 45 46 33 32 29 35 29 35 32 26 26 21 19 27 17 24 8 2 358 342 355 126 169 177 204 51 326 327 312 308 301 15 38 43 25 13 9 46 126 141 151 171 178 146 97 135 164 174 187 186 181 172 162 181 180 181 181 175 157 130 119 119 123 138 147 139 134 129 134 142 159 172 177
39 34 32 37 39 37 34 22 25 42 30 29 40 35 34 34 42 32 26 21 23 21 14 11 8 17 16 9 354 329 327 4 346 15 7 344 158 148 183 164 201 252 243 151 155 113 73 332 43 39 56 109 78 115 127 122 121 134 171 207 211 213 188 189 187 191 190 166 158 149 136 123 120 131 146 147 134 127 134 150 168 161 187 200 221
32 46 41 41 33 33 52 334 329 51 37 33 31 30 25 18 32 35 22 9 356 5 2 15 14 14 358 358 351 332 335 357 42 14 353 342 328 312 299 247 225 250 271 236 171 116 130 136 143 150 144 152 145 168 172 154 140 142 164 186 278 276 231 229 196 183 169 161 154 131 127 136 146 141 131 132 132 143 148 177 194 174 187 202 227
39 46 44 48 51 40 46 45 39 31 52 60 67 42 22 9 13 64 48 13 7 353 353 4 18 4 350 356 357 349 344 15 26 2 327 319 307 315 324 337 347 325 64 29 298 222 219 228 211 184 187 184 188 192 188 183 161 153 159 153 108 51 278 214 201 199 190 169 143 139 140 143 136 135 137 143 144 135 154 176 235 210 209 247 256
78 67 56 50 36 40 42 47 40 39 32 36 55 105 64 12 11 3 65 80 1 326 310 360 4 350 340 21 37 2 8 3 347 328 321 316 311 285 291 305 314 321 56 347 296 282 262 257 244 232 213 206 201 191 187 181 163 159 139 105 112 115 103 352 254 136 106 115 126 137 139 130 127 137 137 134 125 129 148 224 200 229 237 242 238
69 72 70 60 26 9 49 38 41 38 40 29 37 56 133 120 82 61 36 32 44 49 309 311 327 336 343 352 72 142 16 313 314 306 308 309 305 301 276 260 234 196 179 217 239 248 259 260 252 247 249 244 228 210 192 183 176 172 170 158 144 133 132 119 113 118 107 96 95 101 106 120 124 122 127 136 140 159 154 222 249 240 240 243 255
49 50 48 48 49 24 33 40 32 39 35 35 36 36 41 117 137 174 173 149 172 176 176 359 3 18 10 3 336 78 113 1 335 332 336 341 351 304 210 205 207 212 221 307 281 282 280 287 292 287 284 273 259 228 201 197 182 181 166 165 160 122 132 140 139 120 118 113 113 106 103 108 116 127 136 147 158 178 188 212 228 231 237 237 237
32 33 30 26 38 38 28 31 26 30 29 29 34 34 39 33 37 126 160 170 172 172 170 146 95 59 242 2 40 317 306 318 334 343 357 0 10 68 109 152 161 185 215 240 264 280 289 292 289 289 288 281 277 268 239 202 190 178 176 168 155 153 151 143 132 125 126 120 117 120 125 130 134 139 150 162 181 198 204 215 223 217 229 236 225
39 28 17 355 24 25 33 28 20 23 22 27 26 27 43 32 42 3 43 147 168 178 215 103 108 185 186 32 18 352 347 339 344 360 14 13 19 134 166 130 142 173 261 298 296 298 300 304 304 307 305 297 293 270 234 213 170 164 156 118 114 128 125 133 126 123 112 114 105 104 113 130 138 151 179 183 200 219 213 231 238 240 228 232 246
82 123 186 313 27 37 31 24 6 13 11 12 22 25 29 28 16 20 26 7 6 6 80 142 118 71 29 24 11 356 356 341 358 21 25 17 16 1 232 195 184 172 198 248 296 296 306 304 299 293 289 299 291 269 232 202 170 168 154 131 118 107 128 140 132 119 112 116 128 139 148 151 165 189 198 188 194 210 226 222 222 233 238 236 235
54 41 77 83 25 34 14 10 6 12 4 14 15 35 17 22 17 32 29 27 3 9 351 14 4 123 175 137 17 340 353 339 358 25 19 356 333 295 320 357 355 349 344 343 331 327 312 307 301 303 301 277 260 235 164 168 201 196 152 140 138 135 133 119 121 129 123 127 136 149 157 172 187 201 186 189 201 217 221 215 221 205 225 240 255
56 63 55 33 24 18 9 24 35 15 337 320 12 35 36 35 26 24 26 26 32 6 358 20 348 83 184 40 7 321 151 230 270 309 8 358 291 290 15 4 353 348 338 335 336 331 319 315 317 310 303 289 278 251 220 158 158 140 164 143 132 139 132 141 146 136 140 148 157 161 171 178 188 198 200 198 200 211 219 212 230 201 225 53 325
48 30 29 9 346 320 28 35 68 236 240 35 47 48 43 45 43 50 46 43 33 18 18 32 25 22 14 2 353 356 323 270 201 240 234 232 297 16 8 6 348 350 339 336 343 333 327 332 327 314 309 306 293 269 223 180 92 92 79 124 149 128 123 130 113 127 141 160 168 168 181 186 191 202 212 216 208 204 201 206 218 195 184 199 236
107 95 19 297 301 347 2 35 39 34 47 20 55 45 48 51 50 44 52 61 52 48 42 41 39 31 13 357 351 335 318 15 7 13 14 12 18 5 13 4 1 6 349 352 356 342 341 344 346 336 330 323 326 312 248 198 163 142 155 173 155 141 142 167 152 115 137 193 181 184 187 193 200 204 211 214 212 207 207 193 225 239 238 214 215
12 121 73 312 256 101 1 63 58 71 46 44 50 55 65 51 52 55 58 55 51 45 47 42 43 35 14 4 354 341 341 357 10 13 15 12 19 13 11 15 7 5 1 359 353 356 353 345 346 346 324 325 308 275 253 222 194 164 162 179 175 160 166 168 145 144 179 200 195 193 196 203 195 199 205 223 212 203 205 205 219 221 247 286 303
15 22 24 81 319 309 86 53 67 53 71 59 67 70 62 58 62 52 44 41 39 40 37 27 26 44 45 8 333 330 311 3 360 17 19 18 16 19 11 15 16 13 11 12 5 4 360 6 357 355 345 343 333 330 297 247 214 184 185 177 187 176 167 146 153 176 190 195 197 197 197 194 186 192 203 213 333 266 207 221 221 210 207 202 251
343 352 13 79 146 62 77 78 90 111 111 90 62 57 56 49 46 52 45 37 44 36 36 29 11 39 81 31 345 321 317 36 360 27 21 18 18 21 15 16 21 18 15 12 11 6 9 11 9 15 14 11 360 354 333 259 236 210 192 186 182 169 157 151 168 175 189 195 199 207 212 198 187 183 191 349 222 229 248 244 251 245 259 211 218
6 2 70 89 83 83 77 78 76 77 72 66 64 59 43 37 55 56 62 54 48 45 40 26 22 8 40 62 330 308 3 31 28 34 24 14 17 14 24 20 17 17 22 17 19 13 18 23 24 26 23 21 15 6 5 5 339 227 207 192 179 140 136 130 136 133 169 186 187 178 135 141 149 207 212 217 248 266 276 258 254 255 220 274 252
184 152 114 111 113 114 102 101 92 81 63 73 70 46 36 59 54 49 56 58 47 43 35 35 27 23 15 28 15 22 40 31 26 22 20 18 17 16 24 25 21 14 18 23 21 21 27 34 36 34 30 30 29 26 22 15 7 19 79 109 100 95 98 117 122 128 177 190 145 146 178 162 244 248 227 235 248 250 250 247 272 271 277 257 276
188 184 148 138 123 121 113 108 108 103 124 131 86 77 68 62 60 57 50 54 54 44 44 38 36 34 34 36 35 35 38 39 32 24 15 18 25 22 19 18 20 18 18 25 22 17 25 38 45 42 42 40 37 37 33 32 31 29 27 54 85 91 87 89 78 80 213 168 157 155 174 209 222 242 232 200 237 248 267 222 238 274 259 272 285
176 162 139 120 107 105 113 100 94 110 107 77 77 69 63 59 61 58 55 55 49 44 47 45 50 52 53 47 41 45 44 40 37 24 22 29 37 31 20 15 21 24 22 16 23 28 27 31 35 39 41 44 40 42 43 42 36 36 38 40 47 59 63 57 61 114 84 87 195 204 209 211 231 352 24 314 261 266 303 1 303 254 297 285 257
192 176 153 155 107 94 81 102 108 90 89 82 82 84 72 64 60 64 62 41 42 48 48 46 55 61 61 59 50 45 46 50 36 36 43 44 44 41 25 15 32 38 28 23 19 30 38 35 36 39 36 32 44 45 48 48 43 42 38 36 40 41 55 59 59 57 89 357 334 314 323 241 198 199 179 234 270 239 251 258 274 269 271 294 295
221 213 153 163 174 138 132 121 132 165 117 110 94 81 71 71 70 58 47 56 61 62 58 48 46 60 64 65 66 66 67 66 66 64 61 58 55 47 29 27 45 54 46 38 39 38 38 40 36 38 42 40 38 40 45 48 50 45 46 45 36 28 6 353 66 38 38 37 35 27 4 316 6 27 57 122 307 348 299 267 245 241 238 241 259
215 200 186 174 178 181 157 149 147 115 118 123 119 111 71 59 52 65 76 70 64 63 57 59 57 60 67 62 61 71 76 66 64 67 70 68 61 53 43 42 49 49 46 49 55 54 51 43 35 39 37 37 38 40 44 42 44 46 41 42 31 28 30 19 20 34 332 30 71 64 62 67 70 70 61 26 6 309 290 331 303 303 294 271 263
174 199 213 199 202 181 193 214 185 147 131 131 103 101 94 56 43 49 74 84 84 83 88 85 73 67 71 74 70 64 70 74 69 62 61 60 61 59 57 52 51 53 56 60 54 52 55 58 51 48 45 44 45 44 46 44 39 36 36 31 25 25 20 35 39 12 355 59 40 50 45 49 44 22 53 67 68 33 290 274 333 297 284 300 296
228 235 209 216 213 210 210 207 201 204 196 172 161 142 154 151 97 49 59 99 78 79 83 83 90 107 104 80 72 85 82 74 72 68 69 68 62 60 47 43 41 52 57 54 60 60 53 52 57 52 52 47 47 52 51 47 44 39 32 30 32 34 32 27 32 21 1 344 38 46 62 49 44 36 18 29 11 68 29 357 336 313 306 286 293